THOR ABLESTAR DEB, 5716

Orbit data source: Space-Track

THOR ABLESTAR DEB, 5716 is space debris in LEO originally from a launch on Thu, 29 Jun 1961 UTC launched from the Air Force Eastern Test Range (AFETR). Debris objects in space refer to the collection of defunct objects orbiting the Earth. Examples of debris include non-operational satellites, rocket bodies, and fragments generated from explosions, collisions, or faulty payload assembly.

Loading next visibility...
Identifier
5716, 1961-015JT
Orbit
LEO
Country
Flag of USUS
Related business
Manufacturer
Unknown
Mission
Spacecraft
Bus & Motor
Unknown
Mass
Unknown
Launch date (UTC)
1961-06-29 (65 years ago)
Launch vehicle
Unknown
Launch site
Air Force Eastern Test Range (AFETR)
Object type
Payload
Rocket body
Debris
Shape & HBR
Unknown shape, 0.1 m
Radar Cross Section
Small (<0.1 m²)

Expand to show TLE details & history
Last TLE update: 1 day ago

TLE from 1 day ago
0 THOR ABLESTAR DEB
1 05716U 61015JT  26250.78992326  .00001262  00000-0  23820-3 0  9992
2 05716  66.6953  23.0140 0071485 310.0669  49.4192 14.66529574372512
Epoch: 2026-09-07T18:57Z
TLE epoch observation values (Epoch: 2026-09-07T18:57:29.369Z)
Latitude
-0.00003°
Longitude
111.77598°
Altitude
641.731 km
Speed
7.555 km/s
True Right ascension
01h 32m 03s
True Declination
0° 00' 00"
Sunlit
Object was in full shadow at epoch
Visualization orbit readout
Latitude
Unknown
Longitude
Unknown
Altitude
Unknown
Speed
Unknown
Apparent Right ascension
Unknown
Apparent Declination
Unknown
Sunlit
N/A
Visualization observer readout
Local Sidereal Time
11:47:47
Azimuth
Unknown
Elevation
Unknown
Doppler factor
Unknown
Orbital elements
Apogee altitude
720.904 km
Perigee altitude
620.129 km
Semi-major axis
7,048.654 km
Eccentricity
0.00715
Inclination
66.6953°
RAAN
23.014°
Arg. of periapsis
310.0669°
True anomaly
50.04497°
Mean anomaly
49.4192°
Eccentric anomaly
49.73172°
Mean motion
3.66762 °/min
Orbital period
98.16 mins
BSTAR
0.0002382
Loading maneuver chart data...
Computing Atmospheric mass density...
Loading historical data...
Loading historical data...
Loading historical data...
Loading historical data...
Loading historical data...
Loading historical data...
Loading historical data...

Documentation

Showing up to 5 results
|